Miscellaneous Local Product
Issued by NWS Hastings, NE

Home | Current Version | Previous Version | Graphics & Text | Print | Product List | Glossary On
Versions: 1 2 3 4 5 6 7 8 9 10 11 12 13 14 15 16 17 18 19 20 21 22 23 24 25 26 27 28 29 30 31 32 33 34 35 36 37 38 39 40 41 42 43 44 45 46 47 48 49 50
000
AXUS43 KGID 190902
MISGRI

GID CWA HOURLY WEATHER ROUNDUP
NATIONAL WEATHER SERVICE HASTINGS NE
300 AM CST FRI DEC 19 2014

NOTE: "FAIR" INDICATES FEW OR NO CLOUDS BELOW 12,000 FEET WITH NO
SIGNIFICANT WEATHER AND/OR OBSTRUCTIONS TO VISIBILITY.

...SOUTH CENTRAL NEBRASKA...

CITY           SKY/WX    TMP DP  RH WIND       PRES   REMARKS
GRAND ISLAND   CLOUDY    29  26  89 SW12      30.17F WCI  19
HASTINGS       CLOUDY    30  26  85 SW8       30.16S WCI  22
KEARNEY        CLOUDY    28  27  93 S8        30.15S WCI  20
ORD            CLOUDY    28  26  92 S7        30.13R WCI  21
YORK           CLOUDY    30  28  93 SW6       30.19S WCI  24
AURORA         CLOUDY    30  28  92 W8        30.17S WCI  23
LEXINGTON      CLOUDY    29  27  94 SW7       30.14R FOG     WCI  22
HOLDREGE       CLOUDY    29  28  94 SW7       30.14F FOG     WCI  22
HEBRON         CLOUDY    30  27  87 SW5       30.22S FOG     WCI  25

...NEBRASKA PANHANDLE...

CITY           SKY/WX    TMP DP  RH WIND       PRES   REMARKS
CHADRON        PTCLDY    11   9  92 SW5       30.05S WCI   3
ALLIANCE       PTCLDY     5   2  87 SW3       30.04F
SCOTTSBLUFF    PTCLDY     4   0  83 CALM      30.06S
SIDNEY         CLEAR     20  15  81 W7        30.07S WCI  11

...WESTERN AND NORTH CENTRAL NEBRASKA...

CITY           SKY/WX    TMP DP  RH WIND       PRES   REMARKS
VALENTINE      PTCLDY    11   7  84 SW6       30.05S WCI   1
AINSWORTH      PTCLDY    14  12  92 S5        30.06R WCI   6
ONEILL         CLOUDY    28  28 100 S6        30.11S FOG     WCI  22
BROKEN BOW     CLOUDY    26  24  92 SW7       30.11R FOG     WCI  18
IMPERIAL       CLEAR     18  14  84 W5        30.10S WCI  11
NORTH PLATTE   PTCLDY    16  12  84 S3        30.11R FOG
MCCOOK         FOG       23  22  96 S6        30.14S VSB 1/4 WCI  16

...EASTERN NEBRASKA...

CITY           SKY/WX    TMP DP  RH WIND       PRES   REMARKS
NORFOLK        CLOUDY    30  26  85 S9        30.16S WCI  22
SO SIOUX CITY  CLOUDY    31  27  85 SE6       30.21S WCI  25
TEKAMAH        CLOUDY    31  28  89 S7        30.23R WCI  24
COLUMBUS       CLOUDY    30  25  80 S6        30.20S WCI  24
ALBION         CLOUDY    29  25  83 SW8       30.16R WCI  21
OMAHA EPPLEY   CLOUDY    31  28  89 S7        30.25R WCI  24
OFFUTT AFB     MOCLDY    30  28  92 S6        30.24R WCI  24
MILLARD        CLOUDY    31  28  88 S3        30.23S
LINCOLN        CLOUDY    31  29  92 S6        30.24R FOG     WCI  25
NEBRASKA CITY  CLOUDY    29  29 100 S3        30.24R FOG
BEATRICE       CLOUDY    30  28  91 S6        30.23R WCI  24
FALLS CITY     CLOUDY    30  27  88 SW6       30.26R WCI  24

...NORTHERN KANSAS...

CITY           SKY/WX    TMP DP  RH WIND       PRES   REMARKS
GOODLAND       PTCLDY    24  20  84 W7        30.11S WCI  16
HILL CITY      CLOUDY    33  29  85 CALM      30.17S
NORTON         CLOUDY    30  27  86 W6        30.14F FOG     WCI  24
PHILLIPSBURG   CLOUDY    36  30  80 S5        30.18S WCI  32
SMITH CENTER   CLOUDY    30  28  93 SE3       30.20S
BELOIT         CLOUDY    30  28  93 CALM      30.21F
HAYS           CLOUDY    32  25  74 S5        30.18S WCI  27
RUSSELL        CLOUDY    31  30  96 SE5       30.18S WCI  26
CONCORDIA      CLOUDY    28  27  96 SW5       30.22S WCI  23
SALINA         CLOUDY    30  27  88 S5        30.25R FOG     WCI  25
TOPEKA         CLOUDY    32  29  88 S3        30.27S



USA.gov is the U.S. government's official web portal to all federal, state and local government web resources and services.